Time,TemperatureF,DewpointF,PressureIn,WindDirection,WindDirectionDegrees,WindSpeedMPH,WindSpeedGustMPH,Humidity,HourlyPrecipIn,Conditions,Clouds,dailyrainin,SolarRadiationWatts/m^2,SoftwareType,DateUTC
2013-01-06 00:01:00,46.6,44.4,30.47,West,279,0.0,5.0,92,0.00,-RA,OVC,0.00,0.0,WeatherDisplay:10.37,2013-01-06 00:01:00,
2013-01-06 00:31:00,46.4,44.5,30.47,West,279,0.0,4.0,93,0.00,-RA,OVC,0.00,0.0,WeatherDisplay:10.37,2013-01-06 00:31:00,
2013-01-06 01:00:00,46.4,44.4,30.46,West,279,0.0,6.0,93,0.00,-RA,OVC,0.00,0.0,WeatherDisplay:10.37,2013-01-06 01:00:00,
2013-01-06 01:30:00,46.1,44.1,30.46,West,279,0.0,3.0,93,0.00,-RA,OVC,0.00,0.0,WeatherDisplay:10.37,2013-01-06 01:30:00,
2013-01-06 02:00:00,46.0,44.3,30.44,West,279,2.0,6.0,94,0.00,-RA,OVC,0.00,0.0,WeatherDisplay:10.37,2013-01-06 02:00:00,
2013-01-06 02:30:00,45.6,43.9,30.46,West,279,1.0,5.0,94,0.00,-RA,OVC,0.00,0.0,WeatherDisplay:10.37,2013-01-06 02:30:00,
2013-01-06 03:00:00,45.4,43.7,30.46,West,279,1.0,6.0,94,0.00,-RA,OVC,0.00,0.0,WeatherDisplay:10.37,2013-01-06 03:00:00,
2013-01-06 03:30:00,45.0,43.4,30.47,West,279,0.0,4.0,94,0.00,-RA,OVC,0.00,0.0,WeatherDisplay:10.37,2013-01-06 03:30:00,
2013-01-06 04:00:00,44.8,43.4,30.47,West,279,0.0,6.0,95,0.00,-RA,OVC,0.00,0.0,WeatherDisplay:10.37,2013-01-06 04:00:00,
2013-01-06 04:30:00,44.3,42.9,30.47,WNW,284,2.0,7.0,95,0.00,-RA,OVC,0.00,0.0,WeatherDisplay:10.37,2013-01-06 04:30:00,
2013-01-06 05:00:00,44.2,42.8,30.46,WNW,295,1.0,10.0,95,0.00,-RA,OVC,0.00,0.0,WeatherDisplay:10.37,2013-01-06 05:00:00,
2013-01-06 05:30:00,44.4,43.3,30.46,WNW,293,1.0,6.0,96,0.00,-RA,OVC,0.00,0.0,WeatherDisplay:10.37,2013-01-06 05:30:00,
2013-01-06 06:00:00,44.6,43.5,30.46,WNW,295,0.0,7.0,96,0.00,-RA,OVC,0.00,0.0,WeatherDisplay:10.37,2013-01-06 06:00:00,
2013-01-06 06:30:00,44.6,43.6,30.45,WNW,295,1.0,5.0,96,0.00,-RA,OVC,0.00,0.0,WeatherDisplay:10.37,2013-01-06 06:30:00,
2013-01-06 07:00:00,44.5,43.4,30.45,WNW,295,0.0,5.0,96,0.00,-RA,OVC,0.00,0.0,WeatherDisplay:10.37,2013-01-06 07:00:00,
2013-01-06 07:30:00,44.4,43.3,30.46,WNW,295,0.0,7.0,96,0.00,-RA,OVC,0.00,0.0,WeatherDisplay:10.37,2013-01-06 07:30:00,
2013-01-06 08:00:00,44.5,43.7,30.46,WNW,295,0.0,3.0,97,0.00,-RA,OVC,0.00,0.0,WeatherDisplay:10.37,2013-01-06 08:00:00,
2013-01-06 08:30:00,44.7,43.9,30.47,WNW,295,1.0,3.0,97,0.00,-RA,OVC,0.00,11.0,WeatherDisplay:10.37,2013-01-06 08:30:00,
2013-01-06 09:00:00,45.1,44.3,30.46,WNW,295,0.0,3.0,97,0.00,-RA,OVC,0.00,30.0,WeatherDisplay:10.37,2013-01-06 09:00:00,
2013-01-06 09:30:00,45.3,44.5,30.46,WNW,292,0.0,3.0,97,0.00,OVC,OVC,0.00,21.0,WeatherDisplay:10.37,2013-01-06 09:30:00,
2013-01-06 10:00:00,45.6,44.8,30.46,WNW,292,0.0,3.0,97,0.00,OVC,OVC,0.00,26.0,WeatherDisplay:10.37,2013-01-06 10:00:00,
2013-01-06 10:30:00,45.7,44.9,30.47,WNW,292,1.0,5.0,97,0.00,OVC,OVC,0.00,20.0,WeatherDisplay:10.37,2013-01-06 10:30:00,
2013-01-06 11:00:00,45.5,44.7,30.46,WNW,292,1.0,4.0,97,0.00,OVC,OVC,0.00,55.0,WeatherDisplay:10.37,2013-01-06 11:00:00,
2013-01-06 11:30:00,45.4,44.6,30.46,WNW,292,1.0,6.0,97,0.00,OVC,OVC,0.00,51.0,WeatherDisplay:10.37,2013-01-06 11:30:00,
2013-01-06 12:00:00,45.2,44.4,30.45,WNW,295,2.0,4.0,97,0.00,-RA,OVC,0.00,42.0,WeatherDisplay:10.37,2013-01-06 12:00:00,
2013-01-06 12:30:00,44.9,44.1,30.44,WNW,295,2.0,6.0,97,0.00,-RA,OVC,0.00,53.0,WeatherDisplay:10.37,2013-01-06 12:30:00,
2013-01-06 13:00:00,45.0,44.2,30.44,WNW,295,2.0,6.0,97,0.00,-RA,OVC,0.00,33.0,WeatherDisplay:10.37,2013-01-06 13:00:00,
2013-01-06 13:30:00,45.1,44.3,30.43,WNW,295,2.0,5.0,97,0.00,-RA,OVC,0.00,28.0,WeatherDisplay:10.37,2013-01-06 13:30:00,
2013-01-06 14:00:00,45.1,44.3,30.42,WNW,295,0.0,6.0,97,0.00,-RA,OVC,0.00,35.0,WeatherDisplay:10.37,2013-01-06 14:00:00,
2013-01-06 14:30:00,45.0,44.2,30.41,WNW,295,1.0,6.0,97,0.00,-RA,OVC,0.00,28.0,WeatherDisplay:10.37,2013-01-06 14:30:00,
2013-01-06 15:00:00,44.9,43.8,30.41,WNW,295,2.0,6.0,96,0.00,-RA,OVC,0.00,9.0,WeatherDisplay:10.37,2013-01-06 15:00:00,
2013-01-06 15:30:00,45.3,44.2,30.40,WNW,295,1.0,4.0,96,0.00,-RA,OVC,0.00,16.0,WeatherDisplay:10.37,2013-01-06 15:30:00,
2013-01-06 16:00:00,45.3,43.9,30.39,West,280,3.0,9.0,95,0.00,-RA,OVC,0.00,0.0,WeatherDisplay:10.37,2013-01-06 16:00:00,
2013-01-06 16:30:00,45.0,43.7,30.39,SW,223,0.0,8.0,95,0.00,-RA,OVC,0.00,0.0,WeatherDisplay:10.37,2013-01-06 16:30:00,
2013-01-06 17:00:00,45.0,43.6,30.38,SW,223,0.0,4.0,95,0.00,-RA,OVC,0.00,0.0,WeatherDisplay:10.37,2013-01-06 17:00:00,
2013-01-06 17:30:00,45.3,43.9,30.38,SW,223,0.0,3.0,95,0.00,-RA,OVC,0.00,0.0,WeatherDisplay:10.37,2013-01-06 17:30:00,
2013-01-06 18:00:00,45.8,44.4,30.38,SW,223,0.0,4.0,95,0.00,-RA,OVC,0.00,0.0,WeatherDisplay:10.37,2013-01-06 18:00:00,
2013-01-06 18:30:00,46.2,44.5,30.38,West,275,0.0,5.0,94,0.00,-RA,OVC,0.00,0.0,WeatherDisplay:10.37,2013-01-06 18:30:00,
2013-01-06 19:00:00,46.6,44.6,30.37,West,275,0.0,3.0,93,0.00,-RA,OVC,0.00,0.0,WeatherDisplay:10.37,2013-01-06 19:00:00,
2013-01-06 19:30:00,47.0,45.1,30.36,West,269,1.0,5.0,93,0.00,-RA,OVC,0.00,0.0,WeatherDisplay:10.37,2013-01-06 19:30:00,
2013-01-06 20:00:00,47.1,45.1,30.36,SW,236,2.0,7.0,93,0.00,-RA,OVC,0.00,0.0,WeatherDisplay:10.37,2013-01-06 20:00:00,
2013-01-06 20:30:00,47.2,45.5,30.36,West,277,0.0,7.0,94,0.00,-RA,OVC,0.00,0.0,WeatherDisplay:10.37,2013-01-06 20:30:00,
2013-01-06 21:00:00,47.3,45.7,30.37,WSW,252,1.0,5.0,94,0.00,-RA,OVC,0.00,0.0,WeatherDisplay:10.37,2013-01-06 21:00:00,
2013-01-06 21:30:00,47.5,45.3,30.36,WSW,239,0.0,10.0,92,0.00,-RA,OVC,0.00,0.0,WeatherDisplay:10.37,2013-01-06 21:30:00,
2013-01-06 22:00:00,47.7,45.2,30.35,WSW,237,1.0,8.0,91,0.00,-RA,OVC,0.00,0.0,WeatherDisplay:10.37,2013-01-06 22:00:00,
2013-01-06 22:30:00,47.5,44.7,30.35,West,271,2.0,12.0,90,0.00,-RA,OVC,0.00,0.0,WeatherDisplay:10.37,2013-01-06 22:30:00,
2013-01-06 23:00:00,47.2,44.4,30.36,West,268,2.0,12.0,90,0.00,-RA,OVC,0.00,0.0,WeatherDisplay:10.37,2013-01-06 23:00:00,
2013-01-06 23:30:00,47.2,44.7,30.36,WSW,250,1.0,9.0,91,0.00,-RA,OVC,0.00,0.0,WeatherDisplay:10.37,2013-01-06 23:30:00,